Flint, MI

9:47 PM EST on November 22, 2017 (GMT -0500)
Bishop International

Weather History for KFNT - February, 2014

Change the Weather History Date:

Friday, February 7, 2014

  Actual Average Record
Temperature  
Mean Temperature 8 °F 23 °F  
Max Temperature 15 °F 31 °F 50 °F (2009)
Min Temperature 1 °F 16 °F -11 °F (1967)
Degree Days  
Heating Degree Days 57 42  
Month to date heating degree days 369 294  
Since 1 July heating degree days 4522 4258  
Cooling Degree Days 0 0  
Month to date cooling degree days 0 0  
Year to date cooling degree days 0 0  
Moisture  
Dew Point -1 °F    
Average Humidity 68    
Maximum Humidity 79    
Minimum Humidity 57    
Precipitation  
Precipitation T in 0.05 in 0.73 in (2017)
Month to date precipitation 0.61 0.33  
Year to date precipitation 3.14 1.96  
Snow  
Snow T in 0.40 in 2.10 in (1986)
Month to date snowfall 10.9 2.8  
Since 1 July snowfall 62.3 30.6  
Snow Depth 12.00 in    
Sea Level Pressure  
Sea Level Pressure 30.28 in    
Wind  
Wind Speed 12 mph (SW)    
Max Wind Speed 21 mph    
Max Gust Speed 26 mph    
Visibility 10 miles    
Events      
T = Trace of Precipitation, MM = Missing Value Source: NWS Daily Summary

Daily Weather History Graph

Daily Weather History Graph

Search for Another Location

Airport or City:

Trip Planner

Search our weather history database for the weather conditions in past years. The results will help you decide how hot, cold, wet, or windy it might be!

Date:

Astronomy

Feb. 07, 2014 Rise Set
Actual Time 7:43 AM EST 5:55 PM EST
Civil Twilight 7:13 AM EST 6:25 PM EST
Nautical Twilight 6:39 AM EST 6:59 PM EST
Astronomical Twilight 6:06 AM EST 7:32 PM EST
Moon 12:04 PM EST (2/7) 1:59 AM EST (2/7)
Length of Visible Light 11h 12m
Length of Day
10h 12m
First Quarter, 59% of the Moon is Illuminated
Feb 7
First Quarter
Feb 14
Full
Feb 22
Last Quarter
Mar 1
New
Mar 8
First Quarter

Hourly Weather History & Observations

Time (EST) Temp. Windchill Dew Point Humidity Pressure Visibility Wind Dir Wind Speed Gust Speed Precip Events Conditions
12:01 AM 8.6 °F -7.0 °F 1.4 °F 73% 30.24 in 7.0 mi SW 12.7 mph - N/A   Overcast
12:53 AM 7.0 °F -11.0 °F -0.9 °F 70% 30.30 in 10.0 mi SW 16.1 mph - N/A   Overcast
1:13 AM 6.8 °F -10.0 °F -0.4 °F 72% 30.24 in 10.0 mi SW 13.8 mph - N/A   Overcast
1:31 AM 5.0 °F -10.8 °F -2.2 °F 72% 30.24 in 10.0 mi SW 11.5 mph - N/A   Overcast
1:53 AM 3.9 °F -11.3 °F -4.0 °F 70% 30.29 in 10.0 mi SW 10.4 mph - N/A   Partly Cloudy
2:53 AM 1.9 °F -11.8 °F -5.1 °F 72% 30.29 in 10.0 mi SSW 8.1 mph - N/A   Clear
3:53 AM 1.0 °F -14.0 °F -5.1 °F 75% 30.28 in 10.0 mi SW 9.2 mph 16.1 mph N/A   Partly Cloudy
4:11 AM 1.4 °F -15.3 °F -5.8 °F 72% 30.23 in 10.0 mi SW 11.5 mph 18.4 mph N/A   Mostly Cloudy
4:53 AM 3.0 °F -9.3 °F -4.0 °F 73% 30.28 in 10.0 mi SW 6.9 mph - N/A   Overcast
5:53 AM 3.9 °F -9.4 °F -2.9 °F 73% 30.28 in 10.0 mi SW 8.1 mph - N/A   Overcast
6:53 AM 6.1 °F -7.8 °F -0.9 °F 73% 30.28 in 10.0 mi SW 9.2 mph - N/A   Overcast
7:53 AM 5.0 °F -10.0 °F -2.0 °F 73% 30.29 in 10.0 mi SSW 10.4 mph - N/A   Overcast
8:53 AM 6.1 °F -10.2 °F -0.9 °F 73% 30.30 in 8.0 mi SW 12.7 mph - N/A   Overcast
9:53 AM 8.1 °F -7.0 °F -0.0 °F 70% 30.32 in 10.0 mi SW 11.5 mph - N/A   Overcast
10:53 AM 8.1 °F -9.0 °F -0.9 °F 67% 30.31 in 10.0 mi SW 15.0 mph - N/A   Overcast
11:10 AM 8.6 °F -7.7 °F -0.4 °F 67% 30.26 in 10.0 mi SW 13.8 mph - N/A   Scattered Clouds
11:53 AM 10.0 °F -6.5 °F -0.0 °F 64% 30.30 in 10.0 mi SW 15.0 mph - N/A   Overcast
12:08 PM 10.4 °F -6.0 °F 1.4 °F 67% 30.24 in 10.0 mi WSW 15.0 mph - N/A   Overcast
12:53 PM 12.9 °F -4.4 °F 1.9 °F 62% 30.28 in 10.0 mi WSW 18.4 mph 24.2 mph 0.52 in   Overcast
1:53 PM 14.0 °F -0.8 °F 3.0 °F 62% 30.28 in 10.0 mi WSW 13.8 mph 20.7 mph N/A   Overcast
2:25 PM 14.0 °F -1.4 °F 1.4 °F 57% 30.22 in 10.0 mi WSW 15.0 mph 24.2 mph N/A   Scattered Clouds
2:36 PM 14.0 °F -1.4 °F 3.2 °F 62% 30.21 in 10.0 mi WSW 15.0 mph 21.9 mph N/A   Mostly Cloudy
2:53 PM 14.0 °F -3.4 °F 1.9 °F 59% 30.27 in 10.0 mi WSW 19.6 mph - N/A   Mostly Cloudy
3:53 PM 14.0 °F -2.0 °F 3.0 °F 62% 30.28 in 10.0 mi SW 16.1 mph 23.0 mph N/A   Overcast
4:53 PM 12.9 °F -0.2 °F 3.0 °F 65% 30.29 in 10.0 mi WSW 10.4 mph 19.6 mph N/A   Overcast
5:49 PM 12.2 °F -1.0 °F 1.4 °F 62% 30.24 in 10.0 mi SW 10.4 mph - N/A   Scattered Clouds
5:53 PM 12.0 °F -1.3 °F 1.0 °F 61% 30.30 in 10.0 mi WSW 10.4 mph - N/A   Partly Cloudy
6:53 PM 10.0 °F -2.9 °F -0.9 °F 61% 30.31 in 10.0 mi SW 9.2 mph - N/A   Clear
7:53 PM 8.1 °F -5.3 °F -2.9 °F 61% 30.32 in 10.0 mi SW 9.2 mph - N/A   Clear
8:53 PM 8.1 °F -5.3 °F -4.0 °F 58% 30.32 in 10.0 mi SSW 9.2 mph - N/A   Clear
9:53 PM 7.0 °F -9.1 °F -5.1 °F 58% 30.31 in 10.0 mi SW 12.7 mph - N/A   Clear
10:53 PM 5.0 °F -10.8 °F -6.0 °F 61% 30.31 in 10.0 mi SW 11.5 mph - 0.52 in   Clear
11:53 PM 3.9 °F -12.2 °F -6.0 °F 64% 30.31 in 10.0 mi SW 11.5 mph - N/A   Clear